Location: Moscow
(55.7500°N, 37.5830°E)
Time: 21:58:36
(UTC+03:00)

Vanguard 2 - Pass Details

Date: 01 December 2021
Orbit: 553 x 2936 km, 32.9° (Epoch: 15 January)

Event Time Altitude Azimuth Distance (km) Brightness Sun altitude
Rises 18:22:11 0° 241° (WSW) 4,126 12.7 -18.4°
Reaches altitude 10° 18:26:32 10° 217° (SW) 3,614 11.6 -19.0°
Maximum altitude 18:30:55 14° 189° (S) 3,728 11.2 -19.6°
Drops below altitude 10° 18:36:12 10° 163° (SSE) 4,534 11.4 -20.4°
Sets 18:43:11 0° 143° (SE) 6,075 11.8 -21.3°
